CNCE3 (48874 NORAD) Tracking and Keplerian Element Data

This shows tracking and keplerian element data for the satellite.

Feedback or suggestion? Click here.




ElementValue
Catalog48874
NameCNCE3
Epoch Orbit1329
Epoch Day269.13780866
Epoch Year2021
RAAN257.0312
Inclination60.6949
Eccentricity0.0028468
Argument of Perigee12.993
Mean Anonmoly59.0313
Mean Motion15.1944403
Decay Rate2.436E-05
L11 48874U 21058D 21269.13780866 .00002436 00000-0 12545-3 0 9991
L22 48874 60.6949 257.0312 0028468 12.9930 59.0313 15.19444030 13296

Live tracking and technical data element details for CNCE3 (NORAD 48874). CNCE3 can be tracked NOW for your location showing map with azimuth and elevation plus other details from your city location.

Track the satellite on the map from your city or location and see movement details for azimuth, elevation, latitude, longitude, range, height, and movement on the map or in text.







IsCatalogInMostPopularTable: catalog: 48874, numindb: 27
Update: records affected: 1



GetName: 48874 CNCE3

Hit Count: updated at: Sun, 26 Sep 2021 16:39:32 GMT